Weather History for Casper, WY

Change the Weather History Date:

Sunday, January 27, 2013

  Actual Average Record
Temperature  
Mean Temperature 41 °F 25 °F  
Max Temperature 51 °F 35 °F 56 °F (2003)
Min Temperature 31 °F 14 °F -26 °F (1980)
Degree Days  
Heating Degree Days 24 40  
Month to date heating degree days 1048 1085  
Since 1 July heating degree days 3771 4214  
Cooling Degree Days 0 0  
Month to date cooling degree days 0 0  
Year to date cooling degree days 0 0  
Moisture  
Dew Point 27 °F    
Average Humidity 54    
Maximum Humidity 70    
Minimum Humidity 38    
Precipitation  
Precipitation 0.00 in 0.01 in 0.31 in (2000)
Month to date precipitation 0.11 0.44  
Year to date precipitation 0.11 0.44  
Snow  
Snow 0.00 in 0.30 in - ()
Month to date snowfall 2.2 7.9  
Since 1 July snowfall 20.9 38.4  
Snow Depth 0.00 in    
Sea Level Pressure  
Sea Level Pressure 29.64 in    
Wind  
Wind Speed 15 mph (SW)    
Max Wind Speed 29 mph    
Max Gust Speed 37 mph    
Visibility 10 miles    
Events      
T = Trace of Precipitation, MM = Missing Value Source: NWS Daily Summary

Daily Weather History Graph

Daily Weather History Graph

Search for Another Location

Airport:

Trip Planner

Search our weather history database for the weather conditions in past years. The results will help you decide how hot, cold, wet, or windy it might be!

Date:

Astronomy

Jan. 27, 2013 Rise Set
Actual Time 7:25 AM MST 5:12 PM MST
Civil Twilight 6:54 AM MST 5:43 PM MST
Nautical Twilight 6:20 AM MST 6:17 PM MST
Astronomical Twilight 5:47 AM MST 6:50 PM MST
Moon 6:12 PM MST (1/27) 7:17 AM MST (1/27)
Length of Visible Light 10h 48m
Length of Day
9h 47m
Full, 100% of the Moon is Illuminated
Jan 27
Full
Feb 3
Last Quarter
Feb 10
New
Feb 17
First Quarter
Feb 25
Full

Hourly Weather History & Observations

Time (MST) Temp. Windchill Dew Point Humidity Pressure Visibility Wind Dir Wind Speed Gust Speed Precip Events Conditions
12:53 AM 39.0 °F 31.8 °F 27.0 °F 62% 29.66 in 10.0 mi WSW 11.5 mph - N/A   Overcast
1:53 AM 39.0 °F 31.8 °F 27.0 °F 62% 29.65 in 10.0 mi SSW 11.5 mph - N/A   Overcast
2:53 AM 39.0 °F 34.8 °F 28.0 °F 65% 29.63 in 10.0 mi SSW 5.8 mph - N/A   Overcast
3:53 AM 39.0 °F 33.4 °F 28.0 °F 65% 29.63 in 10.0 mi SW 8.1 mph - N/A   Overcast
4:53 AM 39.9 °F 32.1 °F 28.9 °F 65% 29.63 in 10.0 mi SSW 13.8 mph - N/A   Overcast
5:53 AM 39.0 °F 31.4 °F 28.9 °F 67% 29.66 in 10.0 mi SSW 12.7 mph - N/A   Overcast
6:53 AM 37.9 °F 30.0 °F 28.0 °F 68% 29.68 in 10.0 mi SW 12.7 mph - N/A   Clear
7:53 AM 39.0 °F 31.0 °F 28.9 °F 67% 29.69 in 10.0 mi SW 13.8 mph - N/A   Mostly Cloudy
8:53 AM 41.0 °F 32.5 °F 28.9 °F 62% 29.68 in 10.0 mi SSW 17.3 mph 23.0 mph N/A   Overcast
9:53 AM 45.0 °F 37.6 °F 28.9 °F 53% 29.68 in 10.0 mi SW 17.3 mph 25.3 mph N/A   Overcast
10:53 AM 45.0 °F 38.5 °F 28.0 °F 52% 29.69 in 10.0 mi SW 13.8 mph 20.7 mph N/A   Partly Cloudy
11:53 AM 46.9 °F - 28.0 °F 48% 29.67 in 10.0 mi South 11.5 mph - N/A   Scattered Clouds
12:53 PM 51.1 °F - 26.1 °F 38% 29.62 in 10.0 mi SW 20.7 mph - N/A   Mostly Cloudy
1:53 PM 48.9 °F - 26.1 °F 41% 29.62 in 10.0 mi SW 19.6 mph 25.3 mph N/A   Overcast
2:53 PM 48.9 °F - 28.0 °F 44% 29.60 in 10.0 mi SSW 23.0 mph 28.8 mph N/A   Partly Cloudy
3:53 PM 46.9 °F - 26.1 °F 44% 29.62 in 10.0 mi SW 11.5 mph 21.9 mph N/A   Mostly Cloudy
4:53 PM 45.0 °F 37.4 °F 26.1 °F 48% 29.61 in 10.0 mi SW 18.4 mph 27.6 mph N/A   Mostly Cloudy
5:53 PM 44.1 °F 35.9 °F 26.1 °F 49% 29.63 in 10.0 mi SW 19.6 mph 31.1 mph N/A   Mostly Cloudy
6:53 PM 42.1 °F 32.3 °F 26.1 °F 53% 29.64 in 10.0 mi SSW 24.2 mph 36.8 mph N/A   Partly Cloudy
7:53 PM 42.1 °F 33.1 °F 26.1 °F 53% 29.64 in 10.0 mi SSW 20.7 mph 28.8 mph N/A   Overcast
8:53 PM 42.1 °F 34.5 °F 26.1 °F 53% 29.63 in 10.0 mi SW 15.0 mph 23.0 mph N/A   Overcast
9:53 PM 41.0 °F 32.5 °F 26.1 °F 55% 29.62 in 10.0 mi SW 17.3 mph 24.2 mph N/A   Overcast
10:53 PM 36.0 °F 28.0 °F 25.0 °F 64% 29.63 in 10.0 mi NNW 11.5 mph - N/A   Overcast
11:53 PM 30.9 °F 21.2 °F 26.1 °F 82% 29.66 in 10.0 mi NNW 12.7 mph - N/A   Overcast